FW1025 Weather Reports


Display with metric or nautical units.
time (UTC)temp
F
wind
direction
speed
MPH
gust
MPH
rain 1hr
in
rain 24hr
in
rain mn
in
humidity
%
barometer
mb
20260507193359 56 296 7.0 14.0 0.00 0.04 0.00 37 1037.7
20260507191213 56 341 8.0 14.0 0.00 0.04 0.00 37 1038.7
20260507190207 56 344 5.0 13.0 0.00 0.04 0.00 35 1038.7
20260507185215 55 273 7.0 16.0 0.00 0.04 0.00 34 1038.9
20260507183053 56 283 5.0 11.0 0.00 0.04 0.00 32 1039.0
20260507180949 54 300 4.0 8.0 0.00 0.04 0.00 34 1039.4
20260507180014 55 267 4.0 9.0 0.00 0.04 0.00 30 1039.4
20260507175030 55 294 3.0 10.0 0.00 0.04 0.00 32 1039.6
20260507174020 55 296 4.0 10.0 0.00 0.04 0.00 33 1040.1
20260507173012 54 308 5.0 9.0 0.00 0.04 0.00 34 1040.1
20260507170848 53 287 3.0 9.0 0.00 0.04 0.00 34 1040.5
20260507165836 53 270 5.0 9.0 0.00 0.04 0.00 39 1040.7
20260507163655 51 270 4.0 11.0 0.00 0.04 0.00 45 1040.9
20260507162704 50 273 5.0 11.0 0.00 0.04 0.00 42 1041.1
20260507161726 50 277 4.0 8.0 0.00 0.04 0.00 42 1041.1
20260507160731 49 253 4.0 9.0 0.00 0.04 0.00 40 1041.2
20260507155740 48 246 7.0 11.0 0.00 0.04 0.00 46 1041.5
20260507154707 47 246 6.0 11.0 0.00 0.04 0.00 47 1041.5
20260507153728 47 237 5.0 9.0 0.00 0.04 0.00 49 1041.8
20260507152658 46 240 5.0 10.0 0.00 0.04 0.00 49 1041.9
20260507151711 45 257 6.0 12.0 0.00 0.04 0.00 50 1041.9
20260507150730 44 243 6.0 12.0 0.00 0.04 0.00 55 1041.9
20260507145711 44 240 6.0 10.0 0.00 0.04 0.00 54 1042.2
20260507144657 43 238 5.0 9.0 0.00 0.04 0.00 54 1042.2
20260507143627 42 231 4.0 9.0 0.00 0.04 0.00 56 1042.3
20260507142624 41 263 5.0 9.0 0.00 0.04 0.00 55 1042.4
20260507141648 41 225 6.0 11.0 0.00 0.04 0.00 55 1042.4
20260507140710 40 235 7.0 11.0 0.00 0.04 0.00 54 1042.5
20260507135659 40 232 5.0 9.0 0.00 0.04 0.00 55 1042.6
20260507134710 39 249 4.0 7.0 0.00 0.04 0.00 53 1042.6
20260507133713 39 238 4.0 7.0 0.00 0.04 0.00 53 1042.6
20260507132715 38 245 3.0 6.0 0.00 0.04 0.00 55 1042.6
20260507131654 37 242 3.0 7.0 0.00 0.04 0.00 54 1042.6
20260507130621 36 240 3.0 7.0 0.00 0.04 0.00 55 1042.5
20260507125641 35 223 3.0 8.0 0.00 0.04 0.00 57 1042.4
20260507124618 35 246 3.0 8.0 0.00 0.04 0.00 56 1042.4
20260507123607 34 238 3.0 7.0 0.00 0.04 0.00 56 1042.3
20260507122544 34 236 3.0 7.0 0.00 0.04 0.00 57 1042.3
20260507121537 33 229 2.0 5.0 0.00 0.04 0.00 57 1042.3
20260507120535 33 217 2.0 6.0 0.00 0.04 0.00 56 1042.3
20260507115536 33 227 2.0 7.0 0.00 0.04 0.00 56 1042.3
20260507114551 34 228 3.0 7.0 0.00 0.04 0.00 54 1042.3
20260507113605 33 222 3.0 7.0 0.00 0.04 0.00 55 1042.4
20260507110329 32 223 2.0 4.0 0.00 0.04 0.00 55 1042.5
20260507105337 32 216 2.0 4.0 0.00 0.04 0.00 56 1042.4
20260507104310 32 224 2.0 4.0 0.00 0.04 0.00 57 1042.5
20260507103252 32 226 3.0 6.0 0.00 0.04 0.00 57 1042.5
20260507101110 31 215 2.0 4.0 0.00 0.04 0.00 59 1042.8
20260507100041 32 232 1.0 4.0 0.00 0.04 0.00 58 1042.8
20260507095038 32 246 1.0 3.0 0.00 0.04 0.00 60 1042.8
20260507094044 33 245 1.0 5.0 0.00 0.04 0.00 57 1042.7
20260507093104 33 254 1.0 5.0 0.00 0.04 0.00 55 1042.7
20260507092118 31 253 2.0 4.0 0.00 0.04 0.00 60 1042.8
20260507085915 32 259 2.0 4.0 0.00 0.04 0.00 58 1043.0
20260507084913 30 249 1.0 4.0 0.00 0.04 0.00 65 1043.1
20260507083850 30 233 2.0 4.0 0.00 0.04 0.00 70 1043.1
20260507082835 30 232 2.0 6.0 0.00 0.04 0.00 70 1043.3
20260507081804 30 226 3.0 6.0 0.00 0.04 0.00 71 1043.3
20260507080754 29 220 2.0 4.0 0.00 0.04 0.00 73 1043.3
20260507075728 29 236 1.0 4.0 0.00 0.04 0.00 74 1043.3
20260507074753 29 238 2.0 4.0 0.00 0.04 0.00 77 1043.3
20260507073805 28 220 2.0 4.0 0.00 0.04 0.00 79 1043.3
20260507072815 28 232 2.0 4.0 0.00 0.04 0.00 80 1043.3
20260507070714 28 241 2.0 6.0 0.00 0.04 0.00 85 1043.3
20260507063449 27 221 1.0 4.0 0.00 0.04 0.00 90 1043.3
20260507062442 27 230 1.0 4.0 0.00 0.04 0.00 91 1043.2
20260507061441 27 212 2.0 5.0 0.00 0.04 0.00 92 1043.2
20260507060459 28 195 2.0 5.0 0.00 0.04 0.00 93 1043.2
20260507055504 28 200 2.0 5.0 0.00 0.04 0.04 94 1043.1
20260507054458 27 202 2.0 5.0 0.00 0.04 0.04 94 1043.1
20260507053510 27 212 1.0 5.0 0.00 0.04 0.04 93 1043.1
20260507052440 27 200 2.0 6.0 0.00 0.04 0.04 93 1042.9
20260507051422 27 184 2.0 8.0 0.00 0.04 0.04 93 1042.9
20260507050433 27 190 3.0 8.0 0.00 0.04 0.04 93 1042.6
20260507045437 28 217 3.0 8.0 0.00 0.04 0.04 93 1042.6
20260507044434 28 167 4.0 12.0 0.00 0.04 0.04 93 1042.6
20260507042319 28 182 4.0 10.0 0.00 0.04 0.04 92 1042.6
20260507041246 28 160 5.0 11.0 0.00 0.04 0.04 92 1042.6
20260507040219 28 178 5.0 11.0 0.00 0.04 0.04 92 1042.6
20260507035242 28 180 4.0 10.0 0.00 0.04 0.04 92 1042.6
20260507034230 28 195 4.0 10.0 0.00 0.04 0.04 91 1042.6
20260507033225 29 175 5.0 10.0 0.00 0.04 0.04 91 1042.6
20260507032153 29 172 5.0 10.0 0.00 0.04 0.04 90 1042.5
20260507024947 29 192 4.0 9.0 0.00 0.04 0.04 89 1042.3
20260507023923 29 186 5.0 9.0 0.00 0.04 0.04 88 1042.1
20260507022930 29 190 4.0 9.0 0.00 0.04 0.04 88 1042.1
20260507021942 30 193 4.0 8.0 0.00 0.04 0.04 88 1042.1
20260507021005 30 198 3.0 8.0 0.00 0.04 0.04 87 1041.9
20260507015947 30 186 3.0 10.0 0.00 0.04 0.04 86 1041.9
20260507015010 31 207 5.0 10.0 0.00 0.04 0.04 85 1041.9
20260507012921 32 197 5.0 10.0 0.00 0.04 0.04 82 1041.8
20260507011903 32 202 5.0 11.0 0.00 0.04 0.04 82 1041.8
20260507010909 33 204 5.0 11.0 0.00 0.04 0.04 80 1041.7
20260507005907 34 154 4.0 9.0 0.00 0.04 0.04 80 1041.7
20260507004838 34 211 5.0 9.0 0.00 0.04 0.04 80 1041.7
20260507003901 34 196 4.0 8.0 0.00 0.04 0.04 79 1041.7
20260507002920 34 211 4.0 10.0 0.00 0.04 0.04 80 1041.7
20260507000842 33 195 5.0 9.0 0.00 0.04 0.04 80 1041.8
20260506234731 33 202 4.0 8.0 0.00 0.04 0.04 81 1041.7
20260506233753 32 203 3.0 7.0 0.00 0.04 0.04 81 1041.7
20260506232719 32 194 4.0 7.0 0.00 0.04 0.04 79 1041.7
20260506231700 32 183 3.0 6.0 0.00 0.04 0.04 80 1041.7
20260506225600 33 227 2.0 5.0 0.00 0.04 0.04 77 1041.6
20260506224557 34 239 0.0 2.0 0.00 0.04 0.04 79 1041.6
20260506222404 34 5 1.0 4.0 0.00 0.04 0.04 84 1041.8
20260506221428 33 17 2.0 6.0 0.00 0.04 0.04 85 1041.8
20260506220411 32 316 2.0 9.0 0.00 0.03 0.03 85 1041.9
20260506215411 32 355 5.0 10.0 0.00 0.03 0.03 83 1041.8
20260506214339 33 0 5.0 10.0 0.04 0.03 0.03 84 1041.9
20260506213341 32 5 5.0 9.0 0.09 0.03 0.03 85 1041.9
20260506212313 32 42 4.0 9.0 0.00 0.02 0.02 86 1042.4
20260506211334 31 355 3.0 9.0 0.00 0.01 0.01 88 1042.3
20260506210300 30 14 5.0 10.0 0.00 0.01 0.01 87 1042.3
20260506205312 30 25 4.0 10.0 0.00 0.01 0.01 87 1042.3
20260506204250 29 36 4.0 12.0 0.00 0.01 0.01 89 1042.3
20260506202153 29 76 6.0 10.0 0.00 0.01 0.01 88 1042.2
20260506201128 29 24 5.0 10.0 0.00 0.01 0.01 90 1042.1
20260506200107 28 46 5.0 12.0 0.00 0.01 0.01 89 1042.1
20260506195033 28 78 5.0 12.0 0.00 0.01 0.01 88 1042.1
20260506194049 29 355 2.0 9.0 0.00 0.01 0.01 88 1042.0